TimeMST,TemperatureF,Dew PointF,Humidity,Sea Level PressureIn,VisibilityMPH,Wind Direction,Wind SpeedMPH,Gust SpeedMPH,PrecipitationIn,Events,Conditions,WindDirDegrees,DateUTC
12:15 AM,28.4,19.4,69,29.93,10.0,NNW,9.2,-,N/A,,Clear,330,2013-03-08 07:15:00
12:55 AM,26.6,19.4,74,29.92,10.0,NNW,12.7,-,N/A,,Clear,330,2013-03-08 07:55:00
1:15 AM,26.6,19.4,74,29.92,10.0,NNW,11.5,-,N/A,,Clear,330,2013-03-08 08:15:00
1:35 AM,26.6,17.6,69,29.92,10.0,NNW,13.8,-,N/A,,Clear,330,2013-03-08 08:35:00
1:55 AM,26.6,17.6,69,29.92,10.0,NW,11.5,-,N/A,,Clear,320,2013-03-08 08:55:00
2:15 AM,26.6,17.6,69,29.91,10.0,NW,13.8,-,N/A,,Clear,320,2013-03-08 09:15:00
2:55 AM,24.8,15.8,69,29.90,10.0,NNW,12.7,-,N/A,,Overcast,330,2013-03-08 09:55:00
3:15 AM,26.6,15.8,64,29.90,10.0,NW,16.1,-,N/A,,Overcast,320,2013-03-08 10:15:00
3:35 AM,24.8,15.8,69,29.88,10.0,NNW,19.6,-,N/A,,Overcast,330,2013-03-08 10:35:00
3:55 AM,24.8,15.8,69,29.88,10.0,NW,16.1,-,N/A,,Mostly Cloudy,320,2013-03-08 10:55:00
4:15 AM,24.8,15.8,69,29.87,10.0,NW,15.0,-,N/A,,Mostly Cloudy,320,2013-03-08 11:15:00
4:55 AM,26.6,15.8,64,29.88,10.0,NW,13.8,-,N/A,,Overcast,320,2013-03-08 11:55:00
5:15 AM,24.8,14.0,64,29.88,10.0,NW,11.5,-,N/A,,Overcast,310,2013-03-08 12:15:00
5:35 AM,24.8,14.0,64,29.88,10.0,NW,12.7,-,N/A,,Overcast,320,2013-03-08 12:35:00
5:55 AM,26.6,15.8,64,29.88,10.0,NW,10.4,-,N/A,,Overcast,320,2013-03-08 12:55:00
6:47 AM,24.8,15.8,69,29.87,10.0,WNW,9.2,-,N/A,,Overcast,300,2013-03-08 13:47:00
7:50 AM,26.6,15.8,64,29.87,10.0,NW,9.2,-,N/A,,Overcast,310,2013-03-08 14:50:00
8:47 AM,28.4,15.8,59,29.87,10.0,WNW,9.2,-,N/A,,Overcast,300,2013-03-08 15:47:00
9:22 AM,28.4,17.6,64,29.87,4.0,WNW,9.2,-,N/A,,Haze,300,2013-03-08 16:22:00
9:48 AM,30.2,17.6,60,29.87,4.0,NW,9.2,-,N/A,,Haze,310,2013-03-08 16:48:00
10:47 AM,24.8,23.0,93,29.87,3.0,NW,4.6,-,N/A,Snow,Light Snow,320,2013-03-08 17:47:00
11:02 AM,32.0,17.6,55,29.87,2.0,WNW,4.6,-,N/A,Snow,Light Snow,300,2013-03-08 18:02:00
11:47 AM,32.0,28.4,87,29.86,7.0,Calm,Calm,-,N/A,,Mostly Cloudy,0,2013-03-08 18:47:00
12:55 PM,37.4,30.2,75,29.84,10.0,SE,4.6,-,N/A,,Mostly Cloudy,140,2013-03-08 19:55:00
1:47 PM,37.4,30.2,75,29.83,10.0,ESE,8.1,-,N/A,,Mostly Cloudy,120,2013-03-08 20:47:00
2:55 PM,37.4,32.0,81,29.82,10.0,ESE,10.4,-,N/A,,Mostly Cloudy,120,2013-03-08 21:55:00
3:50 PM,39.2,32.0,75,29.83,10.0,ESE,6.9,-,N/A,,Mostly Cloudy,120,2013-03-08 22:50:00
4:47 PM,39.2,30.2,70,29.81,10.0,Calm,Calm,-,N/A,,Scattered Clouds,0,2013-03-08 23:47:00
5:47 PM,37.4,32.0,81,29.82,10.0,ESE,9.2,-,N/A,,Mostly Cloudy,120,2013-03-09 00:47:00
6:47 PM,35.6,30.2,81,29.84,10.0,ESE,4.6,-,N/A,,Scattered Clouds,110,2013-03-09 01:47:00
7:47 PM,33.8,30.2,87,29.85,10.0,Calm,Calm,-,N/A,,Mostly Cloudy,0,2013-03-09 02:47:00
8:47 PM,32.0,28.4,87,29.87,10.0,NW,4.6,-,N/A,,Scattered Clouds,320,2013-03-09 03:47:00
9:47 PM,30.2,26.6,86,29.87,10.0,WNW,6.9,-,N/A,,Clear,300,2013-03-09 04:47:00
10:15 PM,32.0,28.4,87,29.88,10.0,NW,6.9,-,N/A,,Clear,310,2013-03-09 05:15:00
10:35 PM,32.0,28.4,87,29.88,10.0,WNW,8.1,-,N/A,,Clear,300,2013-03-09 05:35:00
10:47 PM,30.2,26.6,86,29.89,10.0,WNW,6.9,-,N/A,,Clear,300,2013-03-09 05:47:00
10:55 PM,30.2,28.4,93,29.89,10.0,NW,5.8,-,N/A,,Clear,310,2013-03-09 05:55:00
11:15 PM,30.2,26.6,86,29.89,10.0,NW,9.2,-,N/A,,Clear,310,2013-03-09 06:15:00
11:35 PM,30.2,26.6,86,29.89,10.0,NW,8.1,-,N/A,,Clear,310,2013-03-09 06:35:00
11:55 PM,30.2,26.6,86,29.89,10.0,NW,8.1,-,N/A,,Clear,310,2013-03-09 06:55:00